AirNav   Everest Fuels
 
 790 users online  

KEDN Enterprise Municipal Airport
Enterprise, Alabama, USA

GOING TO ENTERPRISE?


FAA INFORMATION EFFECTIVE 22 APRIL 2021

Location

FAA Identifier: EDN
Lat/Long: 31-17-59.0000N 085-53-59.4000W
31-17.983333N 085-53.990000W
31.2997222,-85.8998333
(estimated)
Elevation: 360.9 ft. / 110.0 m (surveyed)
Variation: 03W (2005)
From city: 3 miles W of ENTERPRISE, AL
Time zone: UTC -5 (UTC -6 during Standard Time)
Zip code: 36330

Airport Operations

Airport use: Open to the public
Activation date: 07/1955
Control tower: no
ARTCC: JACKSONVILLE CENTER
FSS: ANNISTON FLIGHT SERVICE STATION
NOTAMs facility: ANB (NOTAM-D service available)
Attendance: MONDAY - FRIDAY 0700 - 1700, ALL SATURDAY 0800 - 1700, ALL SUNDAY UNATNDD
Pattern altitude: 1160.9 ft. MSL
TPA: 800 FT AGL FOR CAT A AND B ACFT, 1500 FT AGL FOR CAT C ACFT.
Wind indicator: lighted
Segmented circle: yes
Lights: REIL RWY 05 & 23; PAPI RWY 05 & 23; MIRL RWY 5/23 OPER DUSK-2330; AFTER 2330 ACTVT - CTAF.
Beacon: white-green (lighted land airport)
Operates sunset to sunrise.

Airport Communications

CTAF/UNICOM: 122.8
WX AWOS-3PT: 118.9 (334-347-3524)
CAIRNS APPROACH: 133.45
CAIRNS DEPARTURE: 133.45
  • APCH/DEP SVC PRVDD BY JACKSONVILLE ARTCC ON FREQS 134.3/322.55 (DOTHAN RCAG) WHEN CAIRNS APCH/DEP CLSD.

Nearby radio navigation aids

VOR radial/distance  VOR name  Freq  Var
EDN at fieldENTERPRISE VOR116.6003W
OZRr285/9.1CAIRNS VOR/DME111.2003W
HEYr254/(13.4)HANCHEY VOR110.6003W
RRSr270/24.0WIREGRASS VORTAC111.6002E

 
NDB name  Hdg/Dist  Freq  Var  ID
BOLL WEEVIL122/4.835203WBVG -... ...- --.
RUCKR319/6.221203WOZ --- --..
LOWE248/8.826903WLOR .-.. --- .-.
HANCHEY253/13.422103WHYE .... -.-- .
JUDD093/25.226402WJUY .--- ..- -.--
BLOOD166/33.636504WTOI - --- ..

Airport Services

Fuel available: 100LL JET-A+
Parking: tiedowns
Airframe service: MINOR
Powerplant service: MINOR
Bottled oxygen: NONE
Bulk oxygen: NONE

Runway Information

Runway 5/23

Dimensions: 5080 x 100 ft. / 1548 x 30 m
Surface: asphalt, in good condition
Runway edge lights: medium intensity
Runway edge markings: MARKINGS ARE FAIR DUE TO FADING
RUNWAY 5  RUNWAY 23
Latitude: 31-17.724462N31-18.241587N
Longitude: 085-54.374587W085-53.606833W
Elevation: 342.4 ft.353.2 ft.
Traffic pattern: leftleft
Runway heading: 055 magnetic, 052 true235 magnetic, 232 true
Markings: nonprecision, in fair conditionnonprecision, in fair condition
Visual slope indicator: 2-light PAPI on left (3.00 degrees glide path)2-light PAPI on left (3.50 degrees glide path)
Runway end identifier lights: yesyes
Touchdown point: yes, no lightsyes, no lights
Obstructions: 20 ft. trees, 725 ft. from runway, 102 ft. right of centerline, 26:1 slope to clear29 ft. pole, 837 ft. from runway, 101 ft. right of centerline, 22:1 slope to clear

Airport Ownership and Management from official FAA records

Ownership: Publicly-owned
Owner: TOWN OF ENTERPRISE
P.O.BOX 311000
ENTERPRISE, AL 36331
Phone 334-348-2671
Manager: STACI HAYES
867 AVIATION BLVD.
ENTERPRISE, AL 36331
Phone 334-348-2676
PH: 334-348-2673

Airport Operational Statistics

Aircraft based on the field: 53
Single engine airplanes: 51
Multi engine airplanes: 1
Helicopters: 1
    
Aircraft operations: avg 119/day *
58% military
32% transient general aviation
10% local general aviation
<1% air taxi
* for 12-month period ending 14 August 2019

Additional Remarks

FOR CD CTC CAIRNS APCH AT 334-255-8402, WHEN APCH CLSD CTC JACKSONVILLE ARTCC AT 904-845-1592.

Instrument Procedures

NOTE: All procedures below are presented as PDF files. If you need a reader for these files, you should download the free Adobe Reader.

NOT FOR NAVIGATION. Please procure official charts for flight.
FAA instrument procedures published for use from 22 April 2021 at 0901Z to 20 May 2021 at 0900z.

 
IAPs - Instrument Approach Procedures
RNAV (GPS) RWY 05   download (236KB)
VOR RWY 05   download (206KB)
NOTE: Special Take-Off Minimums/Departure Procedures apply   download (189KB)

Other nearby airports with instrument procedures:

KLOR - Lowe Army Heliport (Fort Rucker) (8 nm NE)
KOZR - Cairns Army Airfield (Fort Rucker) (10 nm E)
KHEY - Hanchey Army Heliport (Fort Rucker) (13 nm E)
33J - Geneva Municipal Airport (15 nm S)
71J - Ozark-Blackwell Field Airport (16 nm NE)
 
Loc | Ops | Rwys | IFR | FBO | Links
Com | Nav | Svcs | Stats | Notes
Area around KEDN (Enterprise Municipal Airport)
 
Road maps at: MapQuest Bing Google
 
Aerial photo
WARNING: Photo may not be current or correct
Aerial photo of KEDN (Enterprise Municipal Airport)
Photo by Brian Christopher
Taken late May 2008

Do you have a better or more recent aerial photo of Enterprise Municipal Airport that you would like to share? If so, please send us your photo.

 
Sectional chart

 
Airport distance calculator
Flying to Enterprise Municipal Airport? Find the distance to fly.

From to KEDN

Sunrise and sunset
Times for 13-May-2021
 Local
(UTC-5)
 Zulu
(UTC)
Morning civil twilight05:2310:23
Sunrise05:5010:50
Sunset19:3000:30
Evening civil twilight19:5600:56

Current date and time
Zulu (UTC)  14-May-2021 04:23:10
Local (UTC-5)  13-May-2021 23:23:10
 
METAR
KEDN 140355Z AUTO 00000KT 10SM CLR 14/14 A3021 RMK AO2 T01380138
KSXS 
5nm NE 
140358Z AUTO 03005KT 10SM CLR 15/14 A3020 RMK AO2 SLP228 T01510135
KLOR 
8nm E 
140358Z AUTO 00000KT 10SM CLR 13/13 A3020 RMK AO2 SLP210 T01340128
KOZR 
9nm E 
140356Z AUTO 03006KT 10SM CLR 15/12 A3020 RMK AO2 SLP228 T01540121
KHEY 
13nm E 
140358Z AUTO 04005KT 10SM CLR 17/13 A3021 RMK AO2 SLP232 T01680125
TAF
KOZR 
9nm E 
131600Z 1316/1422 05009KT 9999 BKN015 BKN025 QNH3015INS BECMG 1317/1318 05009KT 9999 SCT025 BKN040 BKN080 QNH3016INS BECMG 1405/1406 06007KT 9999 SCT050 SCT100 QNH3018INS BECMG 1409/1410 06007KT 9999 FEW060 QNH3020INS TX22/1320Z TN13/1409Z
NOTAMs
Click for the latest NOTAMs
NOTAMs are issued by the DoD/FAA and will open in a separate window not controlled by AirNav.

 

 
 

FBO, Fuel Providers, and Aircraft Ground Support

  
 Business Name 
 
 Contact 
 
 Services / Description 
 
Fuel Prices
 
Comments
  
City of Enterprise (FBO) 334-348-2676
334-348-2673
[email]
Airport management, Aviation fuel, Aircraft parking (ramp or tiedown), Hangar leasing / sales, Flight training, Aircraft maintenance, Rental cars delivered, ...

More info about City of Enterprise (FBO)
Phillips 66
100LL Jet A
FS --- $3.10 
SS $4.35 $3.10 
 Updated 06-May-2021
 
   6 read write
FS=Full service
SS=Self service
Update Fuel Prices
 

Would you like to see your business listed on this page?

 If your business provides an interesting product or service to pilots, flight crews, aircraft, or users of the Enterprise Municipal Airport, you should consider listing it here.  To start the listing process, click on the button below
 
Add a business
 

Other Pages about Enterprise Municipal Airport

www.entercomp.com/...
 
Update a link
 
Copyright © AirNav, LLC. All rights reserved. Privacy Policy  Contact